Weather History for Asheboro, NC

Change the Weather History Date:

Tuesday, January 1, 2013

  Actual Average Record
Temperature  
Mean Temperature 45 °F -  
Max Temperature 49 °F 51 °F 76 °F (1985)
Min Temperature 41 °F 34 °F 16 °F (1977)
Degree Days  
Heating Degree Days 20    
Moisture  
Dew Point 40 °F    
Average Humidity 82    
Maximum Humidity 100    
Minimum Humidity 45    
Precipitation  
Precipitation 0.23 in - - ()
Sea Level Pressure  
Sea Level Pressure 30.04 in    
Wind  
Wind Speed 6 mph (SSW)    
Max Wind Speed 12 mph    
Max Gust Speed 17 mph    
Visibility 7 miles    
Events Rain    
Averages and records for this station are not official NWS values.
T = Trace of Precipitation, MM = Missing Value Source: NWS Daily Summary

Daily Weather History Graph

Daily Weather History Graph

Search for Another Location

Airport:

Trip Planner

Search our weather history database for the weather conditions in past years. The results will help you decide how hot, cold, wet, or windy it might be!

Date:

Astronomy

Jan. 01, 2013 Rise Set
Actual Time 7:29 AM EST 5:17 PM EST
Civil Twilight 7:01 AM EST 5:45 PM EST
Nautical Twilight 6:29 AM EST 6:17 PM EST
Astronomical Twilight 5:58 AM EST 6:48 PM EST
Moon 9:37 PM EST (1/1) 9:49 AM EST (1/1)
Length of Visible Light 10h 44m
Length of Day
9h 48m
Waning Gibbous, 83% of the Moon is Illuminated
Jan 1
Waning Gibbous
Jan 4
Last Quarter
Jan 11
New
Jan 18
First Quarter
Jan 26
Full

Hourly Weather History & Observations

Time (EST) Temp. Windchill Dew Point Humidity Pressure Visibility Wind Dir Wind Speed Gust Speed Precip Events Conditions
12:15 AM 46.8 °F - 26.6 °F 45% 30.12 in 10.0 mi SW 9.2 mph - N/A   Scattered Clouds
12:35 AM 46.4 °F 41.9 °F 27.0 °F 47% 30.12 in 10.0 mi SW 9.2 mph - N/A   Scattered Clouds
12:55 AM 46.0 °F 41.9 °F 27.0 °F 47% 30.12 in 10.0 mi SW 8.1 mph - N/A   Clear
1:15 AM 46.0 °F 42.5 °F 27.3 °F 48% 30.11 in 10.0 mi SSW 6.9 mph - N/A   Scattered Clouds
1:35 AM 46.0 °F 41.9 °F 27.1 °F 48% 30.10 in 10.0 mi SSW 8.1 mph - N/A   Overcast
1:55 AM 46.4 °F 42.9 °F 27.5 °F 48% 30.08 in 10.0 mi SSW 6.9 mph - N/A   Overcast
2:15 AM 46.8 °F - 27.3 °F 47% 30.09 in 10.0 mi SSW 6.9 mph - N/A   Overcast
2:35 AM 46.9 °F - 27.3 °F 46% 30.08 in 10.0 mi SSW 6.9 mph - N/A   Overcast
2:55 AM 47.3 °F - 27.3 °F 46% 30.08 in 10.0 mi SW 8.1 mph - N/A   Overcast
3:15 AM 46.9 °F - 27.1 °F 46% 30.09 in 10.0 mi WSW 4.6 mph - N/A   Overcast
3:35 AM 46.0 °F 44.8 °F 27.9 °F 49% 30.09 in 10.0 mi WSW 3.5 mph - N/A   Mostly Cloudy
3:55 AM 45.5 °F 43.2 °F 28.2 °F 51% 30.07 in 10.0 mi SSW 4.6 mph - N/A   Scattered Clouds
4:15 AM 45.7 °F - 28.6 °F 51% 30.08 in 10.0 mi Calm Calm - N/A   Scattered Clouds
4:35 AM 45.5 °F 43.2 °F 28.8 °F 52% 30.08 in 10.0 mi SW 4.6 mph - N/A   Scattered Clouds
4:55 AM 44.8 °F - 30.0 °F 56% 30.06 in 10.0 mi Calm Calm - N/A   Scattered Clouds
5:15 AM 45.3 °F - 30.0 °F 55% 30.06 in 10.0 mi Calm Calm - N/A   Mostly Cloudy
5:35 AM 45.3 °F - 30.0 °F 55% 30.08 in 10.0 mi Calm Calm - N/A   Overcast
5:55 AM 45.3 °F - 30.6 °F 56% 30.08 in 10.0 mi Calm Calm - N/A Rain Light Rain
6:15 AM 45.0 °F 43.5 °F 31.6 °F 60% 30.09 in 10.0 mi SSW 3.5 mph - N/A Rain Light Rain
6:35 AM 44.6 °F 43.1 °F 33.4 °F 65% 30.09 in 10.0 mi SSW 3.5 mph - N/A Rain Light Rain
6:55 AM 42.3 °F - 36.3 °F 79% 30.09 in 10.0 mi Calm Calm - N/A Rain Light Rain
7:15 AM 41.9 °F 40.0 °F 37.4 °F 84% 30.10 in 10.0 mi SSW 3.5 mph - N/A Rain Light Rain
7:35 AM 42.8 °F 41.1 °F 36.1 °F 77% 30.09 in 10.0 mi South 3.5 mph - N/A Rain Light Rain
7:55 AM 42.6 °F 39.0 °F 36.1 °F 78% 30.11 in 10.0 mi SSW 5.8 mph - N/A   Light Drizzle
8:15 AM 43.7 °F 41.1 °F 35.8 °F 74% 30.11 in 10.0 mi SSW 4.6 mph - N/A Rain Light Rain
8:35 AM 43.2 °F 40.5 °F 36.7 °F 78% 30.11 in 10.0 mi SSW 4.6 mph - N/A Rain Light Rain
8:55 AM 42.8 °F 39.3 °F 38.3 °F 84% 30.11 in 10.0 mi SSW 5.8 mph - 0.01 in Rain Light Rain
9:15 AM 43.3 °F 38.1 °F 37.9 °F 81% 30.10 in 10.0 mi SSW 9.2 mph - 0.01 in Rain Rain
9:35 AM 43.3 °F 39.2 °F 39.4 °F 86% 30.11 in 10.0 mi SSW 6.9 mph - 0.04 in Rain Light Rain
10:15 AM 43.2 °F 39.7 °F 41.5 °F 94% 30.11 in 7.0 mi SSW 5.8 mph - 0.01 in Rain Light Rain
10:35 AM 43.9 °F 39.9 °F 40.8 °F 89% 30.11 in 10.0 mi SSW 6.9 mph - 0.01 in   Light Drizzle
10:55 AM 43.9 °F 38.3 °F 40.3 °F 87% 30.09 in 10.0 mi SSW 10.4 mph - 0.01 in Rain Light Rain
11:15 AM 44.4 °F 40.0 °F 41.0 °F 88% 30.07 in 10.0 mi SSW 8.1 mph - N/A   Light Drizzle
11:35 AM 44.6 °F 38.8 °F 41.9 °F 90% 30.06 in 10.0 mi SSW 11.5 mph - N/A   Mostly Cloudy
11:55 AM 44.6 °F 39.2 °F 42.3 °F 91% 30.04 in 10.0 mi SSW 10.4 mph - N/A   Mostly Cloudy
12:15 PM 45.3 °F 40.1 °F 42.8 °F 91% 30.03 in 10.0 mi SSW 10.4 mph - N/A   Mostly Cloudy
12:35 PM 45.5 °F 40.3 °F 43.5 °F 93% 30.01 in 10.0 mi SSW 10.4 mph 17.3 mph N/A   Mostly Cloudy
12:55 PM 45.5 °F 39.9 °F 43.7 °F 93% 30.01 in 10.0 mi SSW 11.5 mph - N/A   Mostly Cloudy
1:15 PM 45.5 °F 39.9 °F 43.7 °F 93% 30.02 in 7.0 mi SW 11.5 mph - N/A Rain Light Rain
1:35 PM 45.5 °F 41.3 °F 44.1 °F 95% 30.02 in 7.0 mi SW 8.1 mph - N/A Rain Light Rain
1:55 PM 45.9 °F 41.7 °F 44.8 °F 96% 30.01 in 7.0 mi SSW 8.1 mph - 0.01 in Rain Light Rain
2:15 PM 46.0 °F 41.4 °F 45.5 °F 98% 30.00 in 5.0 mi SSW 9.2 mph - N/A Rain Light Rain
2:35 PM 46.6 °F - 45.9 °F 97% 29.98 in 5.0 mi SSW 10.4 mph - 0.01 in Rain Light Rain
2:55 PM 46.9 °F - 46.4 °F 98% 29.98 in 5.0 mi SSW 10.4 mph - 0.01 in   Drizzle
3:15 PM 47.3 °F - 46.6 °F 97% 29.98 in 5.0 mi SSW 9.2 mph - N/A Rain Light Rain
3:35 PM 47.7 °F - 47.3 °F 99% 29.97 in 4.0 mi SSW 10.4 mph - 0.01 in Rain Light Rain
3:55 PM 48.2 °F - 47.5 °F 97% 29.98 in 4.0 mi SW 6.9 mph - 0.01 in Rain Light Rain
4:15 PM 48.2 °F - 48.0 °F 99% 29.98 in 3.0 mi SSW 9.2 mph - 0.01 in Rain Light Rain
4:35 PM 48.4 °F - 48.4 °F 100% 29.99 in 2.5 mi SSW 8.1 mph - 0.02 in Rain Light Rain
4:55 PM 48.4 °F - 48.4 °F 100% 29.99 in 2.5 mi SSW 8.1 mph - 0.03 in Rain Light Rain
5:15 PM 48.7 °F - 48.7 °F 100% 30.00 in 4.0 mi SW 5.8 mph - N/A Rain Light Rain
5:35 PM 48.7 °F - 48.7 °F 100% 30.00 in 3.0 mi SSW 6.9 mph - 0.01 in Rain Light Rain
6:15 PM 48.7 °F - 48.7 °F 100% 30.02 in 3.0 mi SW 4.6 mph - 0.01 in Rain Light Rain
6:35 PM 48.9 °F - 48.9 °F 100% 30.01 in 3.0 mi SSW 4.6 mph - 0.01 in Rain Light Rain
6:55 PM 49.1 °F - 49.1 °F 100% 30.01 in 3.0 mi SSW 5.8 mph - 0.02 in Rain Light Rain
7:15 PM 49.1 °F - 49.1 °F 100% 30.01 in 3.0 mi SSW 6.9 mph - N/A Rain Light Rain
7:35 PM 49.1 °F - 49.1 °F 100% 30.00 in 3.0 mi SSW 5.8 mph - 0.01 in Rain Light Rain
7:55 PM 49.3 °F - 49.3 °F 100% 30.00 in 3.0 mi SSW 4.6 mph - 0.01 in Rain Light Rain
8:15 PM 49.3 °F - 49.3 °F 100% 30.01 in 3.0 mi SW 3.5 mph - N/A Rain Light Rain
8:35 PM 49.3 °F - 49.3 °F 100% 30.01 in 2.5 mi SSW 4.6 mph - N/A Rain Light Rain
8:55 PM 49.3 °F - 49.3 °F 100% 30.01 in 2.0 mi SSW 5.8 mph - 0.01 in Rain Light Rain
9:15 PM 49.1 °F - 49.1 °F 100% 30.01 in 2.5 mi SW 4.6 mph - N/A Rain Light Rain
9:35 PM 49.1 °F - 49.1 °F 100% 30.00 in 2.5 mi Calm Calm - 0.01 in Rain Light Rain
9:55 PM 49.1 °F - 49.1 °F 100% 29.99 in 2.0 mi Calm Calm - 0.02 in Rain Light Rain
10:15 PM 48.9 °F - 48.9 °F 100% 29.99 in 3.0 mi Calm Calm - N/A Rain Light Rain
10:35 PM 48.9 °F - 48.9 °F 100% 30.00 in 2.5 mi Calm Calm - 0.01 in Rain Light Rain
10:55 PM 49.1 °F - 49.1 °F 100% 29.99 in 4.0 mi Calm Calm - 0.01 in Rain Light Rain
11:15 PM 49.1 °F - 49.1 °F 100% 30.00 in 4.0 mi Calm Calm - 0.01 in Rain Light Rain
11:35 PM 48.9 °F - 48.9 °F 100% 29.99 in 2.5 mi Calm Calm - 0.02 in Rain Light Rain
11:55 PM 48.4 °F - 48.4 °F 100% 29.96 in 1.0 mi Calm Calm - 0.03 in Rain Light Rain